Regional Weather Roundup
Issued by NWS

Home | Current Version | Previous Version | Graphics & Text | Print | Product List | Glossary On
Versions: 1 2 3 4 5 6 7 8 9 10 11 12 13 14 15 16 17 18 19 20 21 22 23 24 25 26 27 28 29 30 31 32 33 34 35 36 37 38 39 40 41 42 43 44 45 46 47 48 49 50
923
ASUS43 KFSD 241202
RWRSD

WEATHER ROUNDUP FOR SOUTH DAKOTA
NATIONAL WEATHER SERVICE SIOUX FALLS SD
600 AM CST FRI NOV 24 2017

NOTE: "FAIR" INDICATES FEW OR NO CLOUDS BELOW 12,000 FEET WITH NO
SIGNIFICANT WEATHER AND/OR OBSTRUCTIONS TO VISIBILITY.


SDZ001>005-009-010-012>017-241300-
NORTHWEST AND NORTH CENTRAL SOUTH DAKOTA

CITY           SKY/WX    TMP DP  RH WIND       PRES   REMARKS
FAITH            N/A     55  35  47 W22       29.49R
MOBRIDGE       CLOUDY    50  36  58 NW8       29.41R
$$

SDZ012>016-024>037-041>051-057-063-072>074-241300-
SOUTHWEST AND SOUTH CENTRAL SOUTH DAKOTA

CITY           SKY/WX    TMP DP  RH WIND       PRES   REMARKS
RAPID CTY ARPT CLEAR     50  30  46 W7        29.53F
PIERRE         CLEAR     45  37  73 SW12      29.43F
CUSTER         CLEAR     49  31  49 W18G31    29.64S
ELLSWORTH AFB  CLEAR     54  30  41 W10       29.52S
PHILIP         CLEAR     47  38  71 W8        29.49F
PINE RIDGE     CLEAR     56  38  50 W13       29.61F
SPEARFISH      MOCLDY    59  32  36 SW17G28   29.56R
WINNER         FAIR      55  38  52 NW3       29.48S
$$

SDZ004>011-016>023-039-040-241300-
NORTHEAST SOUTH DAKOTA

CITY           SKY/WX    TMP DP  RH WIND       PRES   REMARKS
ABERDEEN       CLOUDY    37  34  89 SW3       29.38R
WATERTOWN      CLEAR     35  33  92 SE3       29.38F
BROOKINGS      CLEAR     36  33  89 SE9       29.42F
SISSETON         N/A     53  37  54 W15G23    29.32R
$$

SDZ017-020-022-023-036>040-048>070-241300-
SOUTHEAST SOUTH DAKOTA

CITY           SKY/WX    TMP DP  RH WIND       PRES   REMARKS
SIOUX FALLS    CLEAR     42  38  85 SW3       29.42F
HURON          PTCLDY    37  34  89 SE6       29.39F
CHAMBERLAIN    CLEAR     39  35  87 SW3       29.45F
MITCHELL       CLEAR     44  37  76 SW6       29.43F
YANKTON        CLEAR     43  38  82 CALM      29.46F
$$

ABBREVIATIONS USED IN REMARKS
   TC - TEMPERATURE IN CELSIUS
  WCI - WIND CHILL INDEX
   HX - HEAT INDEX
  VSB - VISIBILITY





USA.gov is the U.S. government's official web portal to all federal, state and local government web resources and services.